GFSGBSN_con_3kmhel_228.txt.gz
Helicity
20 20 12 19 22 24 27 27 27 31 32 33 39 46 57 73 84 85 91 88 81 79 82 81 89 96 70 41 73 75 95 84 121 217 204 164 95 96 80 76 92 72 99 76 91 124 141
14 14 16 18 19 21 22 21 25 27 30 33 34 37 46 58 69 75 74 78 82 82 72 86 85 80 37 41 113 116 140 145 118 147 173 219 212 188 165 106 90 108 106 83 70 94 117
-3 3 10 12 11 11 8 8 12 15 22 26 28 31 38 48 54 62 68 70 65 48 35 44 59 49 7 0 109 126 124 139 155 143 179 164 232 209 204 136 84 124 78 54 63 64 81
1 5 5 2 5 8 2 9 13 15 16 18 25 36 46 50 57 60 68 71 63 42 14 2 3 -4 4 57 79 97 117 105 87 95 134 175 185 216 217 226 97 92 74 89 74 40 79
-6 -3 0 3 1 -9 -7 8 12 13 15 18 25 35 42 52 59 55 62 59 42 31 17 -1 -6 -14 -82 48 89 161 120 136 173 98 116 167 183 177 139 170 115 73 101 44 101 50 72
5 1 -5 0 -4 -4 3 12 14 10 14 15 18 17 27 37 42 46 46 21 4 23 51 -10 2 -29 -11 78 145 154 168 159 195 165 168 165 212 179 157 156 167 160 81 145 80 110 50
9 13 12 9 2 5 6 12 14 12 8 13 13 10 3 22 28 14 16 -16 43 36 43 14 -37 -23 9 33 87 144 202 133 112 177 174 173 217 183 131 124 104 140 163 33 115 103 140
17 13 14 13 13 17 15 18 7 7 11 10 20 4 4 25 20 35 15 3 59 28 26 6 -65 -71 -51 3 54 145 145 156 87 112 125 164 170 99 92 124 101 127 153 103 177 266 160
8 14 16 12 24 20 20 15 8 10 24 17 15 11 8 41 36 49 57 79 33 31 26 15 4 -28 -33 -38 18 59 158 165 155 143 112 143 108 87 97 120 126 129 129 133 118 38 64
12 15 22 23 29 28 24 16 13 11 18 22 23 18 35 38 54 53 77 38 45 38 63 95 70 15 2 -12 -15 50 67 242 215 195 140 144 102 108 88 92 100 108 97 130 182 142 98
22 17 20 21 36 31 35 33 24 16 19 28 24 38 51 53 59 68 67 28 21 45 164 109 77 29 16 -13 35 18 117 66 186 208 172 128 157 149 167 145 100 105 89 156 69 119 123
17 16 17 22 25 30 39 39 31 17 18 23 21 31 41 85 69 58 32 16 47 112 176 153 43 6 -8 -19 1 -3 27 54 109 127 203 221 88 187 145 102 161 165 90 73 113 92 93
6 10 29 27 31 36 46 42 28 14 15 16 19 23 41 74 68 54 21 42 122 143 104 104 28 -11 -12 10 -21 -56 0 30 98 124 106 105 143 110 113 159 104 113 133 185 153 180 166
9 -1 -1 14 14 18 24 29 24 12 10 14 18 38 83 87 38 35 26 101 182 135 85 24 -17 -4 15 35 13 14 -19 7 44 80 194 117 141 49 79 87 134 48 128 251 218 205 134
9 8 9 5 17 19 6 22 15 18 16 21 33 67 99 68 61 42 57 202 185 96 73 15 -26 -14 6 18 30 29 21 60 60 48 143 143 142 90 84 41 47 128 95 80 131 244 297
18 7 4 11 20 9 11 17 21 17 15 30 54 70 89 39 77 61 94 151 147 81 16 24 44 15 16 -27 62 26 14 -1 70 97 111 118 183 177 89 95 65 77 65 113 154 177 175
19 17 13 10 14 18 12 26 18 4 6 56 61 93 66 58 44 84 120 113 86 51 27 37 17 8 -14 -19 -26 67 1 -6 2 -4 89 85 107 142 87 92 122 89 136 121 104 99 150
30 26 16 18 13 19 12 11 5 7 47 51 72 121 64 17 75 93 108 116 57 53 31 57 18 11 8 -6 -23 -10 31 24 27 -8 -20 74 87 115 117 89 80 160 156 92 143 141 147
29 28 21 17 16 17 11 8 13 40 33 45 83 101 73 63 101 118 130 122 117 93 65 100 69 14 -8 -12 16 -9 17 23 27 17 7 -46 54 161 72 71 96 138 154 103 209 153 180
34 30 28 24 18 19 14 9 20 32 53 42 78 135 103 77 105 108 121 117 149 118 79 104 80 34 4 8 3 31 -3 26 47 38 21 31 -24 65 184 193 188 231 173 85 71 143 177
40 26 29 31 27 19 15 13 17 33 50 35 64 115 114 143 142 145 125 136 110 171 120 88 99 120 83 54 -15 -3 90 145 56 32 12 30 5 -7 -11 43 77 98 71 150 124 102 61
40 38 42 37 40 30 24 26 33 29 47 48 88 96 102 96 73 120 139 137 116 190 170 97 85 62 56 53 41 -10 -54 -61 -14 57 78 46 43 25 -2 15 3 43 24 56 62 112 90
35 39 40 46 45 38 36 34 42 52 37 64 74 82 87 105 108 117 118 111 147 166 125 94 91 50 45 20 35 59 1 -16 -11 -13 31 52 67 54 50 39 40 -7 31 5 12 36 19
30 36 36 44 41 39 48 52 65 64 54 67 81 83 102 106 102 105 102 79 65 102 163 46 47 67 66 20 2 21 39 61 40 35 53 35 41 56 49 39 41 28 7 0 -1 16 21
27 29 38 39 39 44 55 45 64 81 75 67 89 90 103 116 83 62 52 71 64 76 121 76 38 71 83 71 91 50 25 43 48 58 42 74 39 105 115 59 59 62 13 11 19 25 15
35 30 35 38 38 38 41 46 49 46 87 95 88 82 99 125 84 66 93 95 82 81 74 82 48 32 65 154 136 141 80 31 59 49 34 29 45 51 89 108 57 24 -19 20 39 64 -18
42 40 33 38 40 38 40 44 47 49 66 104 138 141 149 147 91 79 147 107 138 135 145 52 52 33 45 115 143 118 90 58 64 24 24 65 87 84 61 92 96 26 36 49 72 45 31
43 42 52 47 43 37 39 39 42 44 54 97 122 178 200 198 144 106 88 124 119 129 156 99 60 72 58 115 149 160 125 122 109 53 31 44 65 64 78 86 83 146 110 74 78 38 86
39 46 47 46 39 46 31 32 31 41 46 72 113 131 160 191 211 165 132 142 124 114 95 99 145 95 90 124 145 158 117 73 70 150 94 75 42 79 72 67 57 34 25 16 48 48 30

GFSGBSN_con_3kmhel_231.txt.gz
Helicity
22 27 26 28 29 33 33 32 34 35 37 39 44 48 54 59 62 70 74 69 63 57 51 46 58 84 71 28 54 32 24 56 76 62 129 149 94 56 75 88 73 55 62 81 77 105 118
13 17 15 18 21 25 27 27 27 29 31 31 31 28 25 25 30 35 42 47 43 38 35 32 32 33 26 18 133 102 79 111 115 98 109 108 134 166 92 91 108 78 59 59 75 88 82
6 12 12 16 21 23 20 21 26 29 25 21 16 16 17 16 16 24 38 32 16 7 -6 -10 -0 -0 5 -10 127 82 65 82 112 136 128 142 141 193 168 131 90 107 135 64 94 88 86
17 16 20 23 27 25 20 17 20 23 24 20 17 16 13 16 20 25 28 37 13 -17 -8 -6 -16 -27 2 51 58 67 86 78 60 64 79 122 187 155 178 237 163 134 99 82 43 58 60
-2 4 9 9 10 14 11 13 11 10 15 18 19 20 20 21 18 26 34 23 -30 -36 -17 -9 -37 -12 19 43 74 85 113 175 143 110 70 94 103 113 120 150 161 102 96 43 41 71 49
-4 -5 -5 -1 2 2 6 13 12 7 7 10 13 14 10 11 8 20 15 -23 -21 -35 20 16 43 9 -4 141 69 54 45 21 98 154 97 112 149 138 129 160 193 157 129 121 66 46 63
-5 -10 -7 -2 -4 6 4 7 6 2 1 8 6 -3 -2 -2 -16 -34 -3 -16 -9 5 51 68 90 82 91 99 41 25 54 87 67 87 135 78 147 170 121 102 118 155 142 120 41 72 39
2 -1 -1 -6 5 6 4 3 1 -1 2 -4 -11 -22 -15 -24 -68 -41 -42 -0 27 45 25 47 57 32 9 19 -21 24 20 65 17 60 51 113 131 109 90 87 100 120 160 155 85 68 77
-4 -2 -3 -3 4 3 -0 -4 -3 -6 -7 -13 -21 -34 -34 -38 -93 -22 14 41 25 40 18 95 50 24 30 -14 -14 -20 32 50 95 92 80 116 105 50 105 105 122 127 153 159 140 53 82
5 2 -1 -4 4 5 2 -1 -5 -8 -9 -9 -20 -30 -28 -45 -29 -9 57 25 31 16 72 131 89 88 37 30 -31 -0 15 38 133 159 127 85 48 67 28 115 90 141 107 168 200 122 149
2 2 3 8 18 9 9 12 9 -2 -3 -6 -12 -21 -31 -28 -0 12 23 8 3 28 155 116 111 43 39 54 42 -4 22 -9 59 177 168 93 47 116 137 69 40 129 62 85 154 259 133
12 5 10 17 8 9 11 17 9 2 5 5 1 -6 -11 32 25 21 1 -4 27 57 140 110 83 60 25 21 71 82 5 30 -1 64 131 208 137 40 69 55 55 41 35 54 128 181 216
20 28 28 24 26 22 20 9 4 -2 4 7 12 12 12 9 10 -3 -3 33 48 74 103 127 95 35 8 17 38 21 12 -24 -31 18 88 115 207 83 50 183 81 62 107 213 198 209 245
32 27 23 17 17 16 10 4 1 -3 1 3 18 11 46 26 15 -0 30 54 86 109 99 68 53 -2 12 23 27 5 29 -32 53 -8 20 30 98 104 88 62 147 75 108 226 255 225 142
30 33 32 32 25 18 7 12 2 5 -0 -1 29 43 43 8 14 19 10 79 129 98 121 70 27 75 31 21 7 -24 17 -12 46 133 88 68 43 25 -1 14 42 164 60 53 126 100 118
32 33 33 26 18 11 9 13 6 -7 -9 3 21 34 54 13 20 42 57 95 129 109 80 79 92 69 69 -3 -22 -27 -18 59 27 62 82 108 154 112 95 35 39 46 63 81 85 208 239
36 29 32 33 28 20 15 16 3 -5 -9 17 10 47 54 26 32 38 89 84 96 108 81 101 75 38 32 16 3 -20 -11 61 18 19 34 62 87 115 73 60 53 34 64 103 105 84 96
43 42 39 34 33 26 17 13 7 -7 3 16 35 74 49 30 78 80 94 85 92 78 59 83 72 59 66 38 33 -5 -30 -23 69 10 2 28 30 81 104 57 28 59 62 187 118 144 90
42 41 41 33 31 33 24 18 20 8 2 15 70 71 45 38 97 99 70 56 69 48 77 98 79 44 51 41 70 12 -23 -52 95 93 61 22 3 52 68 25 50 79 100 -8 113 186 176
43 41 42 38 38 36 33 27 25 16 2 11 56 91 65 65 65 76 88 66 100 140 50 59 65 40 59 27 23 72 -11 -0 62 45 46 26 23 -9 42 59 10 228 212 158 52 48 165
41 43 40 33 40 41 36 33 36 25 1 4 57 62 86 106 89 57 90 79 69 111 119 73 97 93 85 83 27 39 60 -12 23 -8 34 44 42 22 26 44 53 8 153 175 157 115 65
47 41 46 47 44 49 42 42 43 32 1 24 76 59 76 62 65 79 118 88 81 100 146 92 78 74 63 76 73 49 13 2 7 -1 38 36 21 68 58 45 53 71 50 65 96 98 73
42 41 44 53 51 51 56 51 47 34 4 72 62 72 75 86 75 87 86 86 98 118 120 110 120 92 48 36 29 25 38 43 44 14 -12 -46 -37 40 26 93 60 38 52 8 41 44 39
42 47 46 49 55 53 54 61 67 57 10 45 46 63 79 76 70 77 76 65 65 82 96 89 87 111 45 30 44 50 59 86 67 66 49 45 10 40 21 74 77 67 6 -0 12 21 11
44 46 44 45 48 53 61 70 68 68 55 37 75 73 93 90 57 51 47 52 48 59 91 96 97 116 102 56 85 91 52 31 21 50 54 102 47 35 60 55 61 -23 61 50 36 34 36
42 41 42 42 48 47 57 59 65 72 75 57 56 54 90 91 59 40 56 62 74 60 59 64 166 85 58 79 84 145 151 45 62 60 25 60 104 54 55 44 36 40 16 45 76 103 122
45 42 41 45 47 44 43 54 60 65 60 79 94 72 112 107 51 42 77 70 96 81 92 39 58 89 98 122 124 117 100 44 79 38 14 14 22 70 77 90 92 22 144 138 69 114 106
50 54 54 52 55 50 41 45 51 55 68 89 88 89 134 145 65 18 19 63 84 89 84 61 75 125 158 150 126 109 177 151 119 44 27 -4 2 38 74 78 66 199 155 77 98 131 103
50 60 57 61 63 58 44 42 41 44 55 76 90 104 96 129 97 67 88 50 71 56 28 112 162 148 201 181 137 178 167 127 58 57 -7 32 24 1 65 68 54 -2 17 -15 13 23 68

GFSGBSN_con_3kmhel_234.txt.gz
Helicity
24 24 21 25 31 36 34 33 31 33 33 33 32 30 29 28 36 42 46 43 37 29 26 33 51 83 83 18 94 35 -19 25 63 56 115 153 166 119 111 77 42 89 78 39 51 123 87
9 13 15 20 27 31 33 31 34 36 40 41 39 38 36 40 46 55 60 52 34 18 18 20 28 30 7 36 166 189 85 69 99 104 83 149 146 156 191 233 152 80 75 53 30 65 62
4 11 12 16 21 24 22 22 28 35 39 39 33 30 28 34 39 43 41 27 23 15 5 7 12 8 17 42 103 75 60 74 69 80 107 121 185 262 208 220 133 139 167 143 78 103 93
14 11 12 14 19 21 12 13 19 24 28 26 21 18 22 27 39 60 70 50 16 -36 -22 -14 -13 -30 22 59 38 145 119 120 113 76 53 72 139 199 206 191 244 330 172 153 97 75 123
6 7 9 13 17 20 16 15 18 20 22 21 18 21 26 23 50 54 61 59 -38 -61 -3 -28 14 -1 72 30 65 53 56 77 80 94 91 65 74 123 158 203 161 202 174 118 106 104 89
11 9 8 9 13 11 15 19 23 24 25 25 25 23 28 34 51 60 100 138 12 -8 74 4 15 20 74 73 32 27 31 40 60 65 80 79 120 112 133 201 211 182 163 125 119 84 87
17 9 8 7 10 13 16 20 24 25 23 22 25 26 33 39 45 72 121 -22 -21 -6 31 38 30 23 33 35 13 41 78 60 54 68 65 62 88 153 101 126 127 172 182 116 66 87 129
15 11 11 14 12 13 11 16 20 24 23 20 24 31 28 32 14 38 -24 -32 -3 17 -12 -3 -2 -0 16 12 39 35 15 64 92 92 69 59 140 76 85 115 106 117 188 211 212 185 31
7 5 7 11 10 6 7 11 16 19 15 17 14 11 15 12 -9 -12 2 -1 -6 -20 -40 11 12 -16 1 -1 5 1 39 59 65 128 138 127 85 21 61 110 156 177 153 148 163 221 171
8 11 13 11 7 8 7 6 7 8 9 11 10 11 16 42 -33 -34 25 -12 -0 -34 -19 21 35 110 -1 4 20 64 49 58 -4 61 112 147 108 49 46 73 100 176 110 62 131 164 275
13 17 17 13 6 1 -0 -6 -6 -9 -6 -7 13 25 38 9 -21 -12 -34 -30 -24 5 42 57 76 40 9 -15 111 95 32 40 43 10 56 122 110 139 59 75 31 92 66 44 24 96 221
14 22 8 11 7 3 -0 2 -6 -13 -15 -25 -28 27 21 24 43 -7 -27 -31 -1 -15 53 45 65 47 31 -0 40 108 27 47 56 -54 -40 17 96 123 83 206 34 42 5 51 66 70 136
18 19 25 13 13 6 -1 -7 -7 -12 -17 -28 -18 27 8 11 -18 -42 -4 30 -26 4 -1 69 57 38 19 12 24 40 14 23 59 -64 -34 -26 11 112 50 208 108 48 75 166 154 181 200
28 23 22 17 8 9 9 -0 -6 -8 -16 -28 -19 16 39 17 -20 -1 42 3 35 16 33 30 39 12 49 42 32 22 8 15 45 21 16 31 25 31 19 83 177 66 79 219 329 183 110
27 31 37 28 20 14 10 19 8 -3 -13 -16 7 21 28 10 1 20 13 56 69 49 69 36 15 53 81 47 35 8 12 58 38 60 40 28 58 91 121 27 51 142 91 84 95 77 117
34 35 37 34 27 16 13 10 9 3 -5 -8 9 8 57 -1 -3 27 39 67 68 59 51 54 51 71 31 18 34 15 3 91 30 36 38 47 -33 59 126 155 54 -5 20 39 118 169 199
44 39 37 37 34 26 18 13 9 5 2 -7 4 21 39 9 15 38 80 56 53 78 46 70 66 57 46 34 37 12 -0 39 53 32 29 -39 18 6 106 91 98 81 17 69 41 58 124
48 44 51 42 40 37 32 16 18 19 5 1 16 60 39 16 69 53 71 60 62 53 52 58 77 74 59 57 45 28 13 -33 16 6 -10 53 -11 1 127 101 60 36 70 52 143 51 52
58 49 46 44 46 43 40 30 27 33 27 27 57 52 43 26 93 74 45 47 52 33 36 88 82 72 57 64 99 63 2 -69 -61 -80 -14 26 7 -38 41 72 148 44 59 56 -0 136 228
53 53 50 46 50 50 51 40 37 40 32 44 53 68 59 81 66 64 65 61 77 96 33 56 63 56 71 63 83 122 13 35 -19 -29 -33 7 17 -17 -48 21 -46 62 132 66 154 -10 20
53 49 48 49 50 54 56 47 45 43 33 60 73 52 67 91 62 56 67 63 59 72 98 55 76 85 78 105 48 56 60 -17 -2 -6 1 9 7 -15 -31 -22 49 26 3 133 60 127 119
56 56 57 53 44 52 57 52 53 51 39 63 84 69 59 52 39 57 89 79 59 63 92 79 69 56 61 87 91 47 27 42 88 -6 15 17 6 -45 -85 -46 -24 50 46 54 55 105 120
58 56 54 52 59 57 62 53 53 51 41 106 107 86 79 50 46 52 70 62 65 78 91 62 68 71 55 50 46 40 57 74 100 35 2 -2 19 16 -21 -59 -69 -121 42 19 -28 16 20
56 49 47 50 58 59 58 63 54 53 36 119 81 103 108 91 39 35 48 48 65 66 63 49 79 71 51 70 28 37 70 93 77 77 57 41 36 34 5 -16 14 81 10 19 13 26 35
54 47 46 47 50 54 58 59 62 63 61 83 118 121 144 100 59 38 29 45 55 62 65 53 53 127 151 81 104 75 53 33 63 134 62 163 48 50 99 43 26 12 21 25 70 43 104
56 48 45 47 53 56 63 60 68 63 76 99 101 119 137 121 80 43 62 75 82 83 77 95 159 63 91 88 125 131 125 61 70 37 -6 47 155 154 169 113 79 53 9 54 78 41 46
58 53 47 49 52 52 59 60 63 61 72 107 128 89 135 123 82 69 65 67 105 102 90 93 103 74 102 119 130 132 97 35 84 58 46 40 7 74 43 116 155 121 167 88 42 82 191
57 51 47 51 50 51 53 55 61 61 65 98 101 102 138 146 72 57 57 60 83 77 86 78 84 74 77 126 135 129 182 164 129 61 64 53 85 6 3 22 88 158 131 61 93 42 118
58 54 54 57 57 55 51 53 50 57 62 80 139 119 109 145 102 88 74 63 77 24 36 102 120 127 129 142 164 215 268 227 111 111 24 97 29 29 -21 -13 -41 -2 59 14 3 34 38

GFSGBSN_con_3kmhel_240.txt.gz
Helicity
-10 -5 7 19 29 36 26 36 44 52 63 80 79 82 84 89 91 98 111 121 120 124 131 138 133 145 100 128 120 66 46 48 54 101 118 122 133 119 126 155 142 114 68 75 -9 -16 14
-13 -25 -6 15 32 37 23 34 43 53 69 80 86 86 91 101 107 114 119 117 117 100 91 104 110 100 107 122 72 38 17 13 56 66 113 117 117 113 97 110 123 157 137 95 14 -4 -14
-1 -10 -2 13 26 36 33 39 50 63 77 77 81 84 87 97 107 106 113 119 112 75 50 56 59 93 142 73 32 47 48 49 40 43 70 72 89 115 140 137 145 94 34 54 52 24 34
14 12 16 13 24 37 40 42 54 67 74 78 87 86 97 117 117 117 125 119 78 43 14 40 71 77 60 18 22 52 44 34 44 55 50 45 61 93 85 95 121 85 35 -23 46 87 47
-5 -5 8 10 20 30 41 42 48 60 67 76 80 84 99 118 132 154 159 79 -1 -41 -15 7 59 72 73 20 86 60 39 46 28 44 31 63 81 51 99 80 92 87 64 48 -40 79 90
-9 -5 4 12 20 28 38 37 44 59 69 75 83 100 119 126 158 200 199 44 13 14 3 -3 29 55 55 55 63 38 18 11 10 29 55 89 101 105 103 112 67 43 70 40 6 67 246
12 10 6 6 19 23 31 37 43 57 70 86 103 114 130 131 166 239 93 15 24 34 110 73 36 61 38 51 13 2 -1 30 37 10 -1 19 40 32 61 112 126 153 133 112 94 96 138
10 7 7 11 14 21 22 29 39 54 74 90 99 108 118 117 139 161 75 51 53 40 94 22 5 23 33 45 71 25 -33 -27 -6 -24 -32 3 -72 -41 31 114 181 230 228 172 101 102 165
12 14 13 7 12 17 21 28 39 54 77 84 90 98 101 82 101 15 26 68 14 0 88 14 -19 -4 19 67 40 25 1 -44 -34 -30 -38 -66 -50 -41 17 47 130 199 250 236 202 140 161
15 14 11 15 11 18 19 33 47 56 71 76 74 87 94 120 14 3 9 62 10 14 85 21 -16 -28 -9 5 -33 25 10 0 -16 -32 -65 -70 13 2 19 8 46 115 203 319 275 322 192
16 17 15 15 16 13 21 29 35 56 68 69 64 81 103 78 1 13 22 26 5 -12 60 -12 17 10 -24 -14 -8 13 12 33 44 0 37 0 51 17 42 60 70 89 119 169 239 251 261
20 16 16 16 20 20 23 31 45 56 67 64 70 80 88 12 14 4 28 5 -17 10 15 2 32 -4 47 34 29 -7 -5 55 74 56 34 62 37 33 77 105 73 97 122 99 128 132 191
29 26 21 18 16 24 29 35 51 47 58 65 76 82 60 16 4 38 5 6 22 25 -23 4 -6 2 39 27 37 37 8 73 0 16 17 19 44 26 73 152 35 109 61 30 93 131 109
45 38 32 34 29 30 33 38 51 56 65 68 85 86 25 16 19 12 3 23 46 -25 -26 -7 -15 7 50 21 35 27 40 45 34 14 46 44 101 88 45 147 64 31 37 24 0 96 95
44 44 45 42 40 41 33 45 58 58 83 89 82 51 51 46 27 14 35 51 6 -3 0 -11 -10 27 25 19 39 38 50 52 43 41 52 89 155 81 26 73 74 39 36 50 5 8 91
49 45 51 55 54 53 50 48 58 63 77 76 54 58 46 34 29 33 47 27 19 9 16 11 19 34 40 16 41 41 54 68 71 69 98 120 150 39 8 19 46 56 13 47 -8 -9 66
65 55 60 65 67 66 65 59 57 68 81 87 69 75 48 57 36 60 46 19 33 30 24 37 41 39 37 43 26 38 76 123 95 63 113 100 143 135 46 66 59 4 68 58 -35 -2 35
70 61 70 79 83 74 77 76 75 83 108 83 78 90 70 68 81 72 58 44 39 48 44 31 45 43 65 45 41 35 66 121 126 93 116 139 159 149 124 135 59 36 13 58 69 106 51
73 69 74 84 87 89 90 95 93 98 112 101 102 83 77 80 82 83 57 51 35 53 50 56 63 71 59 50 49 55 58 72 93 74 139 142 177 121 59 137 -11 -34 -29 93 77 5 24
67 65 65 79 81 84 91 106 108 109 117 124 125 109 121 128 105 96 90 64 69 50 48 62 70 64 73 61 65 62 72 64 22 36 25 150 209 236 190 80 -11 -29 -40 -33 15 16 56
72 77 78 76 82 89 92 103 122 118 126 142 155 117 102 98 97 90 98 91 95 67 52 73 76 109 84 60 53 58 88 28 44 69 98 146 162 173 122 52 29 36 27 19 -13 3 -5
85 71 76 77 73 87 90 98 112 130 140 171 168 144 155 126 135 109 93 74 76 74 77 73 90 87 90 87 81 66 74 105 68 102 142 101 145 105 51 78 72 28 40 96 57 15 -8
69 77 77 73 75 78 90 110 113 132 152 191 173 160 163 148 127 135 89 84 59 81 75 74 77 86 66 60 73 66 122 180 182 166 153 102 119 127 82 57 27 88 31 36 58 66 36
66 69 65 68 73 78 82 103 111 120 125 190 230 190 186 166 129 93 94 88 60 53 81 63 80 87 70 66 57 62 83 81 96 117 121 127 135 126 95 83 120 80 66 81 86 126 112
73 68 53 59 67 78 86 96 110 107 114 166 229 222 176 160 129 121 66 84 72 56 78 79 70 86 100 75 80 71 72 84 62 82 137 209 217 143 135 145 82 75 104 81 55 77 132
73 80 62 62 71 74 85 94 113 97 110 150 173 212 185 141 120 154 115 102 117 130 134 115 108 99 116 96 104 102 72 57 83 102 127 153 194 210 168 178 165 188 95 77 73 141 202
62 76 67 64 67 77 84 91 102 92 101 148 209 190 189 140 126 139 154 131 146 156 132 142 145 144 132 135 114 97 77 56 76 95 132 186 173 245 177 230 197 217 174 70 178 167 99
73 75 74 68 72 78 79 83 94 101 91 161 177 193 172 134 134 136 168 168 196 183 153 109 153 154 182 131 100 100 105 65 83 92 126 162 152 218 218 302 261 290 195 129 75 79 63
78 81 83 71 76 72 72 73 78 92 91 144 188 197 162 131 109 128 101 81 93 138 157 149 130 128 108 133 118 154 133 128 130 120 132 137 180 221 231 252 168 80 54 46 68 76 72

GFSGBSN_con_3kmhel_246.txt.gz
Helicity
6 11 2 10 35 38 44 52 59 66 77 81 81 107 120 126 128 121 122 118 115 109 114 102 117 131 98 130 78 65 117 73 43 47 88 87 102 81 115 121 135 111 108 91 66 26 3
4 15 1 9 45 34 45 55 63 68 72 79 92 103 116 119 117 124 124 114 101 88 81 96 130 100 74 124 42 82 114 98 79 70 73 92 72 72 81 95 97 94 60 53 23 72 16
-0 22 21 21 48 37 42 47 49 69 76 83 94 107 117 121 132 144 133 116 96 69 73 119 164 158 183 85 74 98 76 76 56 50 45 46 46 78 78 98 87 83 109 92 112 245 54
-0 8 20 22 30 50 41 50 46 62 79 89 103 112 119 132 156 169 160 138 81 49 72 94 97 70 89 79 60 99 123 96 68 39 33 27 26 30 57 67 81 56 58 139 153 154 149
2 -0 1 7 26 42 49 54 59 60 75 86 101 109 116 139 175 204 188 115 75 58 70 91 76 81 82 75 98 77 71 122 49 76 118 70 84 70 86 55 75 118 43 17 60 65 25
5 14 11 19 28 32 55 50 66 68 76 86 95 105 112 133 173 193 162 63 88 64 69 61 81 96 102 93 90 70 26 66 62 30 58 96 86 57 105 109 61 51 26 25 13 -3 -4
4 12 23 19 29 36 52 60 65 80 86 85 89 99 118 133 167 207 53 23 48 67 173 106 103 128 99 62 26 58 60 76 95 165 88 118 117 106 68 14 -20 -17 -32 -17 5 -37 9
3 13 24 24 38 42 42 63 63 69 90 92 92 98 118 141 153 176 28 34 40 30 103 98 86 82 71 62 70 74 53 77 142 171 105 120 163 104 67 53 25 -5 2 -29 -95 -70 -35
19 7 17 41 34 54 50 56 54 61 76 81 87 93 110 117 101 37 56 60 95 54 59 85 64 78 72 75 96 90 61 74 102 131 142 114 89 73 68 51 53 -0 -63 -80 -87 -54 -92
22 17 20 28 39 48 61 58 61 62 63 73 85 88 106 153 36 22 27 78 93 55 78 79 65 56 47 43 80 21 26 42 99 100 75 83 56 47 30 24 -15 -52 -81 -94 -105 -77 -146
31 25 20 40 37 40 59 59 64 61 62 70 83 98 105 75 29 30 35 70 71 47 89 38 59 45 74 79 34 97 9 51 71 70 78 51 73 54 26 23 -21 -70 -70 -67 -65 -63 -72
36 33 29 24 40 47 48 64 64 66 71 69 93 100 116 50 43 34 57 52 38 69 47 48 47 61 81 123 71 39 44 31 19 54 58 49 -2 14 2 -2 -28 -51 -34 -37 -21 -30 -65
55 43 33 29 23 48 53 51 74 70 80 78 98 111 94 51 47 66 53 59 74 53 42 50 45 54 55 84 57 24 23 86 105 101 124 82 52 8 5 -9 6 45 3 -39 -18 -37 -39
62 52 45 35 25 38 50 55 65 75 86 98 102 111 58 47 56 73 70 88 62 34 40 43 42 65 52 38 36 16 34 76 76 52 90 85 49 29 11 11 2 -3 5 5 -24 2 10
30 62 58 52 32 37 47 60 66 78 94 110 117 73 70 60 67 67 92 82 35 32 46 65 79 60 43 29 22 30 34 19 27 28 41 67 28 16 8 18 29 18 61 64 103 113 85
53 23 63 63 44 40 45 57 70 73 99 113 102 97 73 73 69 93 102 56 63 74 88 83 68 46 43 24 25 30 12 1 15 8 6 25 34 7 3 55 51 75 55 117 129 130 97
67 49 40 61 61 61 25 47 52 87 104 117 123 120 88 94 92 121 83 56 70 85 83 84 81 85 62 38 27 31 28 13 19 2 21 27 44 12 26 72 87 97 116 127 132 181 174
53 55 43 45 51 56 16 35 60 85 107 128 148 157 115 116 157 135 92 70 91 116 103 88 100 98 75 59 47 41 41 24 18 23 29 22 41 39 26 25 50 103 127 144 190 185 177
82 48 43 42 44 65 48 51 59 86 102 163 175 155 128 142 144 156 139 141 119 131 103 94 93 77 74 63 55 55 65 59 53 40 39 31 37 43 54 63 117 118 135 150 146 196 153
121 25 44 40 51 53 65 48 68 89 111 166 198 184 184 184 142 129 177 145 144 148 143 117 112 110 101 77 67 62 75 44 29 38 49 67 65 56 72 97 120 111 134 141 188 234 222
19 93 28 50 32 53 62 54 66 89 125 193 218 210 186 159 167 165 187 167 208 151 144 144 127 86 98 93 85 63 78 84 62 77 89 86 67 69 43 51 81 74 64 108 189 167 231
-34 132 25 45 36 55 62 71 61 93 141 226 234 236 242 181 173 256 222 161 211 201 179 135 106 100 99 90 73 62 96 75 76 95 116 87 80 81 65 67 75 64 58 85 75 93 91
-29 113 25 42 42 49 59 84 78 101 191 263 226 226 214 190 205 245 192 185 160 226 188 120 139 155 110 67 62 53 60 72 93 130 128 102 111 103 75 85 73 90 77 109 117 144 132
-21 35 44 43 42 53 61 78 92 96 118 252 239 226 216 201 218 197 160 204 183 200 192 167 170 144 98 107 103 98 88 75 86 98 127 127 129 119 92 91 100 78 140 136 142 140 148
-23 -21 74 47 48 51 64 69 82 102 95 206 229 254 212 193 216 211 188 229 239 233 255 199 173 128 102 122 121 125 125 126 108 104 99 129 154 136 132 98 69 109 127 184 165 149 170
-70 -67 57 54 59 52 69 74 88 98 94 196 210 229 248 188 163 175 234 209 291 293 305 250 219 182 158 147 151 145 134 131 123 159 150 181 163 177 171 131 68 67 90 124 156 137 235
-57 2 56 62 59 57 70 70 89 101 101 206 208 205 251 215 173 233 269 216 262 311 292 265 226 188 158 167 165 147 146 134 146 170 200 247 185 163 200 153 90 72 131 144 174 145 152
-30 32 44 68 54 59 63 69 84 88 102 208 215 191 221 231 198 187 236 257 306 296 280 210 293 224 204 191 158 136 146 118 151 176 177 205 201 186 188 192 87 106 145 153 154 149 135
-2 36 46 72 55 64 63 73 76 90 94 198 240 228 208 234 194 184 187 182 244 204 229 221 198 166 170 201 183 176 162 139 140 151 201 189 190 180 174 145 161 117 128 163 163 133 122

GFSGBSN_con_3kmhel_252.txt.gz
Helicity
35 40 36 31 35 41 31 30 37 51 63 81 87 102 114 122 120 121 129 142 133 124 118 116 120 134 108 83 100 71 92 70 56 82 91 82 93 100 102 105 119 126 121 118 101 61 132
15 22 29 24 24 26 33 39 27 43 58 76 94 103 120 128 127 139 154 147 136 123 112 106 116 127 92 93 83 79 90 78 86 83 108 103 101 118 131 151 157 137 128 98 117 97 96
24 14 11 11 17 21 30 40 32 42 55 75 85 90 116 128 138 152 163 138 131 103 89 114 108 97 118 113 75 79 80 88 92 113 108 134 101 103 111 121 130 121 97 80 175 133 99
28 16 7 18 14 17 30 42 45 35 49 75 80 89 100 119 141 156 157 126 101 94 105 110 99 93 114 89 56 93 70 70 91 97 106 128 132 130 140 102 116 114 108 87 140 196 134
25 19 11 10 19 15 20 20 48 35 52 63 86 89 102 107 135 155 144 112 73 87 93 104 82 81 76 61 76 83 82 73 76 99 114 126 102 105 80 57 82 121 125 172 101 184 88
24 27 28 21 5 8 18 24 24 38 38 63 85 107 118 116 131 159 146 62 73 92 79 74 72 54 50 85 84 79 53 53 61 65 95 107 106 95 77 53 115 108 111 130 161 150 140
42 35 23 28 5 22 19 16 32 36 48 59 84 127 133 133 141 155 92 59 61 69 104 117 86 93 91 64 49 70 63 50 51 85 101 150 127 168 164 179 141 120 122 113 96 105 99
50 37 33 20 29 15 30 27 25 52 47 58 90 124 148 148 154 123 61 60 65 112 113 132 139 108 88 60 74 80 64 51 64 88 73 107 191 136 120 121 112 109 118 114 97 121 89
58 61 49 24 21 34 16 30 30 27 60 69 80 115 155 171 151 73 72 75 109 96 74 110 115 82 76 64 104 116 76 100 123 105 114 138 121 107 112 96 109 141 136 133 112 110 67
81 66 52 56 29 18 39 10 32 34 46 73 89 103 139 229 66 79 86 114 114 80 57 65 69 63 56 54 99 102 101 86 121 156 179 152 105 134 103 115 109 115 110 112 90 -16 73
190 126 79 44 57 50 15 26 16 38 52 70 100 100 127 132 93 76 87 127 102 68 84 55 87 66 48 81 72 98 136 100 89 71 72 108 105 132 141 136 109 105 61 62 52 65 6
201 204 138 96 58 48 52 17 19 28 47 81 97 119 133 69 79 77 107 125 94 102 88 66 83 72 78 85 99 93 117 112 148 148 183 138 113 134 132 107 92 66 47 46 23 19 46
140 186 200 165 101 63 40 45 18 28 33 67 108 124 128 91 101 90 106 130 138 115 61 62 54 61 76 92 113 111 97 121 112 129 131 115 134 98 97 83 82 48 15 61 36 17 79
98 143 187 200 187 116 59 36 35 18 32 68 106 134 84 76 89 114 127 177 122 82 63 65 60 61 63 65 92 95 100 98 109 116 93 96 104 102 92 86 84 77 35 59 52 44 64
97 73 111 155 185 158 112 62 36 32 35 67 115 91 85 86 81 127 179 166 107 66 84 76 69 42 54 46 75 79 93 105 119 118 103 112 132 85 83 60 48 54 59 44 66 64 27
111 98 77 103 134 134 142 83 45 34 18 75 110 101 90 88 102 151 187 143 86 86 75 73 82 32 40 33 50 43 58 73 91 92 89 64 99 75 61 37 61 68 47 45 35 53 46
77 88 112 74 117 94 87 122 60 16 17 62 137 121 99 120 144 207 179 135 68 68 85 74 67 85 56 66 50 59 59 54 50 67 65 57 75 67 29 48 54 50 44 46 54 40 48
73 59 57 89 77 114 54 104 35 33 40 69 197 169 114 159 211 231 160 119 88 79 115 123 100 103 64 75 81 80 62 68 47 49 58 61 80 81 71 42 43 54 49 32 39 60 47
74 63 49 59 48 72 72 49 35 63 26 110 219 208 144 228 234 194 167 116 108 99 102 115 116 117 101 104 114 90 91 85 56 65 61 50 65 82 50 40 39 28 49 53 71 82 43
60 59 40 28 16 30 82 -12 124 89 16 84 274 217 187 201 201 175 155 128 129 147 125 149 146 134 138 135 134 102 131 101 69 70 82 65 63 62 53 83 69 43 51 49 49 71 58
73 88 26 48 35 24 70 15 130 115 66 119 268 268 143 201 180 176 146 65 148 160 149 121 138 115 130 146 133 100 118 122 96 76 71 65 49 35 32 39 57 54 44 47 54 40 66
69 67 34 68 37 19 40 52 53 98 120 162 252 318 239 202 196 104 155 175 97 166 134 126 135 99 106 99 102 72 93 81 73 73 61 55 63 46 25 26 16 14 21 7 21 22 23
47 61 45 54 39 28 31 40 6 103 229 258 142 225 292 145 150 153 192 155 101 135 164 143 125 136 147 138 156 107 141 118 60 51 61 53 60 48 48 46 31 4 70 67 40 53 41
49 68 64 69 57 53 34 26 -77 145 219 210 99 230 272 235 150 132 111 154 122 85 127 132 130 159 213 167 204 231 211 165 107 108 94 71 64 80 79 68 49 106 98 45 24 47 53
43 73 68 45 69 36 40 21 12 184 146 227 99 169 235 212 127 138 144 119 110 172 162 138 152 165 131 231 260 203 205 165 120 107 106 98 97 102 91 65 68 75 89 132 110 58 52
46 76 72 53 61 36 23 11 -4 14 88 249 129 112 187 222 124 127 112 96 241 223 244 270 231 116 245 283 292 188 162 137 115 96 119 100 87 105 105 97 72 133 92 95 120 49 94
39 71 57 59 92 62 7 -33 -2 -6 86 296 191 150 166 179 217 127 138 142 172 220 333 366 332 300 313 320 298 223 194 166 114 111 167 186 127 102 110 118 82 136 165 153 168 144 102
30 51 38 64 176 149 1 -4 -43 19 62 314 216 121 222 189 191 193 158 122 187 195 360 310 445 361 317 273 234 216 162 189 173 130 157 166 165 164 142 146 77 140 172 182 187 164 87
23 48 46 101 134 180 21 -26 -19 88 80 301 306 156 164 208 214 188 187 199 191 181 258 196 287 275 251 306 253 234 214 225 211 191 151 154 169 146 103 97 108 99 120 90 151 151 105